| time (UTC) | temp F | wind direction | speed MPH | gust MPH | rain 1hr in | rain 24hr in | rain mn in | humidity % | barometer mb |
| 20260506004147 | 34 | 127 | 1.0 | 4.0 | 0.00 | 0.00 | 0.00 | 90 | 1011.4 |
| 20260506003201 | 34 | 113 | 2.0 | 4.0 | 0.00 | 0.00 | 0.00 | 90 | 1011.4 |
| 20260506002203 | 34 | 108 | 2.0 | 3.0 | 0.00 | 0.00 | 0.00 | 89 | 1011.5 |
| 20260506001143 | 34 | 126 | 0.0 | 2.0 | 0.00 | 0.00 | 0.00 | 89 | 1011.4 |
| 20260506000130 | 34 | 126 | 0.0 | 5.0 | 0.00 | 0.00 | 0.00 | 89 | 1011.4 |
| 20260505235132 | 34 | 153 | 3.0 | 7.0 | 0.00 | 0.00 | 0.00 | 89 | 1011.4 |
| 20260505234152 | 34 | 94 | 1.0 | 4.0 | 0.00 | 0.00 | 0.00 | 88 | 1011.4 |
| 20260505233143 | 34 | 130 | 4.0 | 7.0 | 0.00 | 0.00 | 0.00 | 88 | 1011.4 |
| 20260505232134 | 34 | 120 | 3.0 | 4.0 | 0.00 | 0.00 | 0.00 | 87 | 1011.4 |
| 20260505231152 | 34 | 102 | 0.0 | 3.0 | 0.00 | 0.00 | 0.00 | 87 | 1011.4 |
| 20260505230140 | 34 | 102 | 0.0 | 2.0 | 0.00 | 0.00 | 0.00 | 86 | 1011.6 |
| 20260505225134 | 34 | 102 | 1.0 | 3.0 | 0.00 | 0.00 | 0.00 | 86 | 1011.7 |
| 20260505224135 | 34 | 82 | 1.0 | 5.0 | 0.00 | 0.00 | 0.00 | 85 | 1011.7 |
| 20260505223209 | 34 | 63 | 4.0 | 5.0 | 0.00 | 0.00 | 0.00 | 85 | 1011.7 |
| 20260505222139 | 35 | 69 | 0.0 | 0.0 | 0.00 | 0.00 | 0.00 | 84 | 1011.7 |
| 20260505221213 | 35 | 69 | 0.0 | 2.0 | 0.00 | 0.00 | 0.00 | 84 | 1011.7 |
| 20260505220132 | 35 | 69 | 2.0 | 3.0 | 0.00 | 0.00 | 0.00 | 83 | 1011.8 |
| 20260505215154 | 35 | 91 | 2.0 | 3.0 | 0.00 | 0.00 | 0.00 | 82 | 1011.9 |
| 20260505214205 | 36 | 49 | 1.0 | 3.0 | 0.00 | 0.00 | 0.00 | 82 | 1011.9 |
| 20260505213206 | 36 | 49 | 0.0 | 3.0 | 0.00 | 0.00 | 0.00 | 82 | 1011.9 |
| 20260505212133 | 36 | 49 | 2.0 | 4.0 | 0.00 | 0.00 | 0.00 | 81 | 1011.8 |
| 20260505211156 | 37 | 49 | 4.0 | 5.0 | 0.00 | 0.00 | 0.00 | 81 | 1011.8 |
| 20260505210131 | 37 | 157 | 0.0 | 0.0 | 0.00 | 0.00 | 0.00 | 80 | 1011.9 |
| 20260505205149 | 37 | 159 | 0.0 | 3.0 | 0.00 | 0.00 | 0.00 | 80 | 1011.9 |
| 20260505204142 | 37 | 162 | 3.0 | 4.0 | 0.00 | 0.00 | 0.00 | 79 | 1011.8 |
| 20260505203144 | 38 | 275 | 0.0 | 0.0 | 0.00 | 0.00 | 0.00 | 79 | 1011.7 |
| 20260505202153 | 38 | 275 | 0.0 | 2.0 | 0.00 | 0.00 | 0.00 | 78 | 1011.8 |
| 20260505201130 | 38 | 279 | 2.0 | 3.0 | 0.00 | 0.00 | 0.00 | 77 | 1011.7 |
| 20260505200136 | 39 | 311 | 1.0 | 2.0 | 0.00 | 0.00 | 0.00 | 77 | 1011.6 |
| 20260505195159 | 39 | 304 | 1.0 | 2.0 | 0.00 | 0.00 | 0.00 | 76 | 1011.6 |
| 20260505194129 | 40 | 285 | 1.0 | 2.0 | 0.00 | 0.00 | 0.00 | 74 | 1011.7 |
| 20260505193149 | 41 | 290 | 1.0 | 5.0 | 0.00 | 0.00 | 0.00 | 72 | 1011.5 |
| 20260505192143 | 42 | 289 | 3.0 | 4.0 | 0.00 | 0.00 | 0.00 | 70 | 1011.5 |
| 20260505191138 | 43 | 310 | 2.0 | 4.0 | 0.00 | 0.00 | 0.00 | 68 | 1011.4 |
| 20260505190202 | 44 | 314 | 2.0 | 5.0 | 0.00 | 0.00 | 0.00 | 65 | 1011.3 |
| 20260505185133 | 45 | 281 | 5.0 | 7.0 | 0.00 | 0.00 | 0.00 | 62 | 1011.3 |
| 20260505184155 | 46 | 294 | 3.0 | 7.0 | 0.00 | 0.00 | 0.00 | 61 | 1011.3 |
| 20260505183129 | 47 | 286 | 4.0 | 5.0 | 0.00 | 0.00 | 0.00 | 59 | 1011.2 |
| 20260505182140 | 47 | 302 | 5.0 | 9.0 | 0.00 | 0.00 | 0.00 | 58 | 1011.2 |
| 20260505181204 | 48 | 290 | 7.0 | 10.0 | 0.00 | 0.00 | 0.00 | 61 | 1011.2 |
| 20260505180136 | 48 | 272 | 7.0 | 10.0 | 0.00 | 0.00 | 0.00 | 61 | 1011.2 |
| 20260505175130 | 48 | 292 | 7.0 | 10.0 | 0.00 | 0.00 | 0.00 | 56 | 1011.2 |
| 20260505174133 | 49 | 280 | 7.0 | 10.0 | 0.00 | 0.00 | 0.00 | 57 | 1011.1 |
| 20260505173127 | 49 | 285 | 8.0 | 10.0 | 0.00 | 0.00 | 0.00 | 56 | 1011.2 |
| 20260505172150 | 49 | 254 | 7.0 | 10.0 | 0.00 | 0.00 | 0.00 | 58 | 1011.2 |
| 20260505171144 | 49 | 308 | 5.0 | 11.0 | 0.00 | 0.00 | 0.00 | 60 | 1011.1 |
| 20260505170138 | 49 | 273 | 8.0 | 11.0 | 0.00 | 0.00 | 0.00 | 54 | 1011.1 |
| 20260505165131 | 49 | 250 | 9.0 | 12.0 | 0.00 | 0.00 | 0.00 | 59 | 1011.1 |
| 20260505164210 | 50 | 271 | 8.0 | 12.0 | 0.00 | 0.00 | 0.00 | 57 | 1011.1 |
| 20260505163202 | 49 | 248 | 9.0 | 13.0 | 0.00 | 0.00 | 0.00 | 59 | 1011.0 |
| 20260505162146 | 50 | 252 | 7.0 | 13.0 | 0.00 | 0.00 | 0.00 | 54 | 1011.0 |
| 20260505161142 | 50 | 254 | 9.0 | 13.0 | 0.00 | 0.00 | 0.00 | 55 | 1011.1 |
| 20260505160137 | 50 | 272 | 8.0 | 14.0 | 0.00 | 0.00 | 0.00 | 54 | 1011.2 |
| 20260505153127 | 51 | 284 | 11.0 | 13.0 | 0.00 | 0.00 | 0.00 | 52 | 1011.2 |
| 20260505152143 | 50 | 273 | 9.0 | 12.0 | 0.00 | 0.00 | 0.00 | 53 | 1011.2 |
| 20260505151133 | 50 | 275 | 6.0 | 13.0 | 0.00 | 0.00 | 0.00 | 51 | 1011.1 |
| 20260505150151 | 49 | 283 | 10.0 | 14.0 | 0.00 | 0.00 | 0.00 | 55 | 1011.2 |
| 20260505140146 | 49 | 284 | 9.0 | 15.0 | 0.00 | 0.00 | 0.00 | 52 | 1011.3 |
| 20260505130154 | 49 | 287 | 11.0 | 20.0 | 0.00 | 0.00 | 0.00 | 52 | 1011.2 |
| 20260505124146 | 49 | 290 | 12.0 | 20.0 | 0.00 | 0.00 | 0.00 | 53 | 1011.4 |
| 20260505123140 | 49 | 297 | 12.0 | 18.0 | 0.00 | 0.00 | 0.00 | 58 | 1011.4 |
| 20260505122130 | 49 | 297 | 7.0 | 17.0 | 0.00 | 0.00 | 0.00 | 58 | 1011.4 |
| 20260505121152 | 49 | 329 | 12.0 | 20.0 | 0.00 | 0.00 | 0.00 | 56 | 1011.4 |
| 20260505120127 | 49 | 328 | 10.0 | 16.0 | 0.00 | 0.00 | 0.00 | 59 | 1011.3 |
| 20260505115140 | 49 | 286 | 11.0 | 18.0 | 0.00 | 0.00 | 0.00 | 60 | 1011.3 |
| 20260505114131 | 49 | 276 | 10.0 | 20.0 | 0.00 | 0.00 | 0.00 | 59 | 1011.4 |
| 20260505113134 | 49 | 240 | 12.0 | 17.0 | 0.00 | 0.00 | 0.00 | 59 | 1011.3 |
| 20260505112127 | 49 | 280 | 10.0 | 17.0 | 0.00 | 0.00 | 0.00 | 60 | 1011.3 |
| 20260505111150 | 49 | 284 | 10.0 | 17.0 | 0.00 | 0.00 | 0.00 | 59 | 1011.3 |
| 20260505110142 | 49 | 294 | 11.0 | 16.0 | 0.00 | 0.00 | 0.00 | 56 | 1011.3 |
| 20260505102137 | 49 | 303 | 8.0 | 17.0 | 0.00 | 0.00 | 0.00 | 55 | 1011.1 |
| 20260505101156 | 49 | 271 | 8.0 | 17.0 | 0.00 | 0.00 | 0.00 | 59 | 1011.2 |
| 20260505100128 | 48 | 284 | 10.0 | 17.0 | 0.00 | 0.00 | 0.00 | 57 | 1011.1 |
| 20260505095127 | 48 | 269 | 11.0 | 20.0 | 0.00 | 0.00 | 0.00 | 59 | 1011.2 |
| 20260505094139 | 48 | 279 | 13.0 | 18.0 | 0.00 | 0.00 | 0.00 | 57 | 1011.3 |
| 20260505093132 | 48 | 278 | 9.0 | 15.0 | 0.00 | 0.00 | 0.00 | 55 | 1011.0 |
| 20260505092132 | 48 | 252 | 10.0 | 16.0 | 0.00 | 0.00 | 0.00 | 57 | 1011.0 |
| 20260505091145 | 48 | 315 | 5.0 | 17.0 | 0.00 | 0.00 | 0.00 | 55 | 1011.0 |
| 20260505090137 | 48 | 307 | 14.0 | 18.0 | 0.00 | 0.00 | 0.00 | 55 | 1011.1 |
| 20260505085130 | 48 | 267 | 12.0 | 17.0 | 0.00 | 0.00 | 0.00 | 53 | 1010.9 |
| 20260505084152 | 48 | 290 | 8.0 | 15.0 | 0.00 | 0.00 | 0.00 | 54 | 1010.8 |
| 20260505083204 | 48 | 281 | 9.0 | 15.0 | 0.00 | 0.00 | 0.00 | 53 | 1010.6 |
| 20260505082141 | 48 | 308 | 7.0 | 15.0 | 0.00 | 0.00 | 0.00 | 54 | 1010.4 |
| 20260505081127 | 48 | 312 | 8.0 | 16.0 | 0.00 | 0.00 | 0.00 | 53 | 1010.4 |
| 20260505080145 | 48 | 275 | 8.0 | 16.0 | 0.00 | 0.00 | 0.00 | 55 | 1010.4 |
| 20260505075204 | 48 | 290 | 10.0 | 16.0 | 0.00 | 0.00 | 0.00 | 56 | 1010.3 |
| 20260505074134 | 47 | 348 | 5.0 | 18.0 | 0.00 | 0.00 | 0.00 | 52 | 1010.3 |
| 20260505073145 | 47 | 317 | 6.0 | 19.0 | 0.00 | 0.00 | 0.00 | 54 | 1010.3 |
| 20260505072147 | 48 | 297 | 8.0 | 19.0 | 0.00 | 0.00 | 0.00 | 52 | 1010.3 |
| 20260505071155 | 48 | 303 | 9.0 | 16.0 | 0.00 | 0.00 | 0.00 | 55 | 1010.2 |
| 20260505070138 | 48 | 275 | 5.0 | 11.0 | 0.00 | 0.00 | 0.00 | 54 | 1010.1 |
| 20260505065152 | 48 | 325 | 6.0 | 11.0 | 0.00 | 0.00 | 0.00 | 55 | 1010.1 |
| 20260505064134 | 48 | 325 | 6.0 | 10.0 | 0.00 | 0.00 | 0.00 | 55 | 1010.0 |
| 20260505063145 | 48 | 325 | 5.0 | 13.0 | 0.00 | 0.00 | 0.00 | 54 | 1009.9 |
| 20260505062133 | 47 | 339 | 6.0 | 11.0 | 0.00 | 0.00 | 0.00 | 57 | 1009.9 |
| 20260505061132 | 46 | 303 | 5.0 | 11.0 | 0.00 | 0.00 | 0.00 | 56 | 1009.9 |
| 20260505060144 | 46 | 313 | 8.0 | 15.0 | 0.00 | 0.00 | 0.00 | 58 | 1009.9 |
| 20260505055147 | 46 | 333 | 9.0 | 14.0 | 0.00 | 0.00 | 0.00 | 59 | 1009.8 |
| 20260505054136 | 47 | 284 | 4.0 | 9.0 | 0.00 | 0.00 | 0.00 | 60 | 1009.8 |
| 20260505053129 | 46 | 17 | 0.0 | 6.0 | 0.00 | 0.00 | 0.00 | 61 | 1009.7 |
| 20260505052149 | 45 | 15 | 1.0 | 5.0 | 0.00 | 0.00 | 0.00 | 62 | 1009.6 |
| 20260505051140 | 45 | 328 | 0.0 | 8.0 | 0.00 | 0.00 | 0.00 | 64 | 1009.5 |
| 20260505050126 | 43 | 33 | 2.0 | 10.0 | 0.00 | 0.00 | 0.00 | 73 | 1009.4 |
| 20260505041141 | 40 | 5 | 2.0 | 5.0 | 0.00 | 0.00 | 0.00 | 77 | 1009.1 |
| 20260505040140 | 41 | 19 | 0.0 | 3.0 | 0.00 | 0.00 | 0.00 | 75 | 1009.0 |
| 20260505035133 | 42 | 9 | 2.0 | 4.0 | 0.00 | 0.00 | 0.00 | 73 | 1008.9 |
| 20260505034145 | 43 | 355 | 1.0 | 7.0 | 0.00 | 0.00 | 0.00 | 73 | 1008.8 |
| 20260505033148 | 43 | 322 | 2.0 | 5.0 | 0.00 | 0.00 | 0.00 | 73 | 1008.8 |
| 20260505032133 | 43 | 338 | 3.0 | 8.0 | 0.00 | 0.00 | 0.00 | 73 | 1008.6 |
| 20260505031153 | 44 | 323 | 3.0 | 9.0 | 0.00 | 0.00 | 0.00 | 73 | 1008.6 |
| 20260505030147 | 44 | 317 | 4.0 | 9.0 | 0.00 | 0.00 | 0.00 | 73 | 1008.5 |
| 20260505025134 | 44 | 327 | 4.0 | 12.0 | 0.00 | 0.00 | 0.00 | 73 | 1008.4 |
| 20260505024155 | 44 | 319 | 5.0 | 10.0 | 0.00 | 0.00 | 0.00 | 74 | 1008.4 |
| 20260505023126 | 45 | 9 | 5.0 | 12.0 | 0.00 | 0.00 | 0.00 | 74 | 1008.6 |
| 20260505022137 | 45 | 303 | 6.0 | 14.0 | 0.00 | 0.00 | 0.00 | 75 | 1008.5 |
| 20260505021128 | 46 | 297 | 7.0 | 17.0 | 0.00 | 0.00 | 0.00 | 75 | 1008.5 |
| 20260505020200 | 46 | 325 | 12.0 | 18.0 | 0.00 | 0.00 | 0.00 | 76 | 1008.4 |
| 20260505015211 | 46 | 311 | 9.0 | 19.0 | 0.00 | 0.00 | 0.00 | 76 | 1008.4 |
| 20260505014131 | 46 | 275 | 11.0 | 21.0 | 0.00 | 0.00 | 0.00 | 77 | 1008.4 |
| 20260505013140 | 46 | 313 | 14.0 | 21.0 | 0.00 | 0.00 | 0.00 | 78 | 1008.3 |
| 20260505012137 | 46 | 310 | 12.0 | 17.0 | 0.00 | 0.00 | 0.00 | 79 | 1008.3 |
| 20260505011126 | 46 | 296 | 12.0 | 20.0 | 0.00 | 0.00 | 0.00 | 85 | 1008.2 |
| 20260505010136 | 47 | 283 | 14.0 | 26.0 | 0.00 | 0.00 | 0.00 | 90 | 1008.2 |
| 20260505005139 | 47 | 277 | 17.0 | 26.0 | 0.00 | 0.00 | 0.00 | 90 | 1008.3 |